This is the latest recevied weather packets stored in our database for station/object SA3PJN-WX. If no packets are shown the sender has not sent any weather packets the latest 10 day(s).
| Time | Temp. | Humidity | Pressure | Rain* | Wind** | Luminosity | Snow |
|---|---|---|---|---|---|---|---|
| 1777702773 | 10.56° C | 67% | 964.8 hPa | - | - | - | - |
| 1777702473 | 10.56° C | 69% | 964.8 hPa | - | - | - | - |
| 1777702172 | 9.44° C | 68% | 964.7 hPa | - | - | - | - |
| 1777701873 | 9.44° C | 70% | 964.9 hPa | - | - | - | - |
| 1777701572 | 9.44° C | 70% | 964.8 hPa | - | - | - | - |
| 1777701272 | 8.89° C | 71% | 964.8 hPa | - | - | - | - |
| 1777700972 | 8.89° C | 70% | 964.9 hPa | - | - | - | - |
| 1777700672 | 9.44° C | 68% | 964.7 hPa | - | - | - | - |
| 1777700372 | 9.44° C | 69% | 964.6 hPa | - | - | - | - |
| 1777700072 | 9.44° C | 67% | 965 hPa | - | - | - | - |
| 1777699772 | 7.78° C | 71% | 964.7 hPa | - | - | - | - |
| 1777699442 | 7.78° C | 72% | 964.7 hPa | - | - | - | - |
| 1777699142 | 7.78° C | 72% | 964.5 hPa | - | - | - | - |
| 1777698812 | 7.78° C | 74% | 964.5 hPa | - | - | - | - |
| 1777698512 | 7.78° C | 75% | 964.5 hPa | - | - | - | - |
| 1777698212 | 7.22° C | 76% | 964.8 hPa | - | - | - | - |
| 1777697882 | 6.67° C | 77% | 964.8 hPa | - | - | - | - |
| 1777697582 | 6.67° C | 75% | 964.8 hPa | - | - | - | - |
| 1777697282 | 6.11° C | 74% | 964.7 hPa | - | - | - | - |
| 1777696982 | 6.11° C | 75% | 964.7 hPa | - | - | - | - |
| 1777696682 | 6.11° C | 75% | 964.9 hPa | - | - | - | - |
| 1777696382 | 6.67° C | 74% | 964.8 hPa | - | - | - | - |
| 1777696082 | 6.67° C | 74% | 965 hPa | - | - | - | - |
| 1777695782 | 7.22° C | 75% | 964.9 hPa | - | - | - | - |
| 1777695482 | 6.67° C | 76% | 965 hPa | - | - | - | - |
* Rain since midnight (hover to see other rain measurements)
** Current wind speed in m/s (hover to see current wind gust speed)